[[{"header":{"parameterUnit":"m.s-1","parameterCategory":1,"la1":30.2991,"la2":30.254,"lo1":-89.0895,"lo2":-89.0444,"dy":0.0017,"dx":0.0017,"nx":28,"ny":28,"refTime":"2024-08-21T21:00:00:Z","depth":0,"parameterNumber":2,"parameterNumberName":"U-component_of_WINDS"},"data":[0,0,0,0,0,0,0,0,0,0,0,0,0,0,0,0,0,0,0,0,0,0,0,0,0,0,0,0,0,0,0,0,0,0,0,0,0,0,0,0,0,0,0,0,0,0,0,0,0,0,0,0,0,0,0,0,0,0,0.3152,0.3154,0,0.3288,0.3289,0.3291,0.3358,0.3358,0.3358,0.3358,0.35,0.3503,0.3507,0,0,0,0,0,0,0,0,0,0,0,0,0,0.2954,0.2957,0.3152,0.3154,0.3156,0.3288,0.3289,0.3291,0.3358,0.3358,0.3358,0.3358,0.3498,0.3503,0.3507,0,0,0,0,0,0,0,0,0,0,0,0,0,0.306,0.2958,0.3152,0.3205,0.3211,0.3287,0.3289,0.3292,0.3358,0.3358,0.3358,0.3358,0.3497,0.3502,0.3508,0.3542,0,0,0.3525,0.3528,0,0,0,0,0,0,0,0,0.3054,0.3067,0.3196,0.3201,0.3208,0.3306,0.3271,0.3376,0.3358,0.3303,0.3358,0.3358,0.3435,0.3446,0.3472,0.3549,0.3555,0.3526,0.3529,0.3531,0.3533,0,0,0,0,0,0,0,0.3046,0.3061,0.3206,0.3197,0.3205,0.3223,0.3238,0.3291,0.3367,0.3307,0.3313,0.3328,0.3439,0.3466,0.3475,0.3557,0.3525,0.353,0.3534,0.3536,0.367,0.367,0,0,0,0,0,0,0.303,0.3055,0.3202,0.321,0.3129,0.3226,0.3243,0.3275,0.3367,0.3381,0.3327,0.333,0.3456,0.3469,0.3481,0.3527,0.3531,0.3537,0.354,0.367,0.367,0.367,0,0,0,0,0,0,0.3025,0.3042,0.3196,0.3134,0.3155,0.323,0.3265,0.3277,0.3305,0.3382,0.3396,0.3341,0.3457,0.3473,0.3526,0.3533,0.3539,0.3544,0.3669,0.367,0.367,0.362,0,0,0,0,0,0,0.3019,0.304,0.3054,0.3134,0.3158,0.3239,0.3265,0.328,0.3314,0.3319,0.3398,0.3412,0.3458,0.3518,0.3532,0.3541,0.3549,0.3669,0.367,0.367,0.3621,0.3618,0.3616,0,0,0,0,0,0.3012,0.3035,0.3054,0.3071,0.3176,0.3239,0.3253,0.3305,0.3314,0.3328,0.3378,0.3409,0.353,0.3522,0.3539,0.355,0.3669,0.3669,0.367,0.3623,0.3619,0.3616,0,0,0,0,0,0,0.2954,0.3046,0.3069,0.3118,0.317,0.325,0.327,0.33,0.3351,0.3354,0.3417,0.3435,0.3483,0.3522,0.3512,0.3588,0.3603,0.3606,0.3561,0.3558,0.3555,0.3545,0.3553,0,0,0,0,0,0.2947,0.299,0.3068,0.3104,0.3129,0.3194,0.3224,0.326,0.3317,0.334,0.3393,0.3448,0.3499,0.3531,0.3581,0.3627,0.3646,0.3643,0.364,0.3638,0.364,0.3668,0.3668,0.3671,0.3671,0.3671,0,0,0.2933,0.2988,0.3012,0.3094,0.3138,0.3182,0.3213,0.3258,0.3291,0.3347,0.34,0.3442,0.3507,0.3557,0.3582,0.3591,0.3643,0.3638,0.3635,0.364,0.3668,0.3668,0.3667,0.3672,0.3672,0.3672,0,0,0.2929,0.2975,0.301,0.3054,0.3121,0.3165,0.3173,0.3249,0.3278,0.3333,0.3376,0.3417,0.3502,0.3547,0.3581,0.3594,0.3625,0.3609,0.3595,0.3621,0.3621,0.3621,0.3626,0.3627,0.3611,0.3611,0.3611,0,0.2903,0.297,0.3024,0.3067,0.3102,0.3153,0.3189,0.323,0.331,0.3333,0.3342,0.345,0.3498,0.356,0.3563,0.3588,0.36,0.36,0.3616,0.3617,0.3618,0.3623,0.3625,0.3609,0.3609,0.3609,0.3609,0,0.2935,0.2981,0.3001,0.3076,0.3113,0.3152,0.3213,0.3244,0.3277,0.3319,0.3375,0.3434,0.3497,0.3515,0.3547,0.3581,0.3584,0.3604,0.362,0.3614,0.362,0.3623,0.3605,0.3606,0.3607,0.3607,0,0,0.2899,0.3004,0.301,0.3045,0.3123,0.3159,0.3201,0.3262,0.3288,0.3342,0.3378,0.3449,0.3468,0.3506,0.3544,0.3567,0.3574,0.3584,0.3587,0.3581,0.3615,0.36,0.3602,0.3595,0.3595,0.3596,0.361,0,0.2907,0.2982,0.3032,0.3089,0.3132,0.3181,0.3218,0.327,0.3311,0.3354,0.34,0.3449,0.3469,0.3493,0.3518,0.3568,0.3582,0.3567,0.363,0.3632,0.3612,0.3605,0.3589,0.36,0.3613,0.3613,0.3614,0,0.2925,0.2977,0.3037,0.311,0.313,0.3161,0.3222,0.3262,0.3322,0.335,0.3393,0.3431,0.3478,0.349,0.3555,0.3544,0.3573,0.3601,0.3603,0.3611,0.3622,0.3613,0.3604,0.3606,0.3618,0.3618,0.3617,0,0.2893,0.2977,0.3025,0.3053,0.3139,0.316,0.3197,0.3257,0.3291,0.3344,0.3366,0.3424,0.3456,0.35,0.3554,0.3557,0.3614,0.363,0.364,0.3638,0.365,0.3648,0.3645,0.3668,0.3668,0.3668,0.3667,0,0.2896,0.2931,0.3011,0.304,0.3081,0.3138,0.3178,0.3219,0.3272,0.331,0.3357,0.3392,0.3461,0.3504,0.3547,0.3595,0.3609,0.3634,0.3645,0.363,0.3626,0.365,0.365,0.3668,0.3668,0.3668,0.3668,0,0.2867,0.2922,0.2977,0.3053,0.3074,0.31,0.3167,0.3197,0.324,0.3288,0.3303,0.3372,0.3426,0.3483,0.3557,0.3586,0.3632,0.3647,0.3611,0.3617,0.3624,0.3622,0.3636,0.3641,0.3659,0.3659,0.3658,0,0.2866,0.2894,0.2973,0.3002,0.3037,0.3083,0.3117,0.3175,0.3209,0.328,0.3302,0.3359,0.3408,0.3492,0.3549,0.3606,0.3623,0.3624,0.3632,0.3616,0.3624,0.3621,0.3625,0.3621,0.3621,0.362,0.362,0,0.2857,0.2883,0.293,0.2987,0.3026,0.3074,0.3123,0.3144,0.3212,0.3248,0.3303,0.3341,0.3416,0.3473,0.3537,0.3576,0.361,0.3617,0.3622,0.3608,0.3586,0.3598,0.3604,0.3617,0.3617,0.3617,0.3617,0.3618,0.2842,0.2869,0.2929,0.298,0.3024,0.3069,0.3101,0.3148,0.3195,0.326,0.3291,0.3347,0.3407,0.3496,0.3534,0.3579,0.3589,0.3597,0.3599,0.36,0.3596,0.3578,0.3591,0.3591,0.3591,0.3591,0.3592,0,0.2836,0.2877,0.2923,0.2991,0.3031,0.3058,0.3114,0.3147,0.3194,0.3247,0.3294,0.3358,0.3413,0.3474,0.3533,0.3557,0.3574,0.3571,0.357,0.3579,0.3584,0.3573,0.3556,0.3556,0.3556,0.3556,0.3556,0.3556,0.2837,0.2885,0.2917,0.2987,0.3028,0.3082,0.3112,0.3154,0.3197,0.3265,0.3311,0.335,0.3407,0.347,0.3522,0.3539,0.3559,0.3551,0.3572,0.3576,0.3578,0.3581,0.3571,0.3555,0.3555,0.3564,0.3564,0.3564]},{"header":{"parameterUnit":"m.s-1","parameterCategory":1,"la1":30.2991,"la2":30.254,"lo1":-89.0895,"lo2":-89.0444,"dy":0.0017,"dx":0.0017,"nx":28,"ny":28,"refTime":"2024-08-21T21:00:00:Z","depth":0,"parameterNumber":3,"parameterNumberName":"V-component_of_WINDS"},"data":[0,0,0,0,0,0,0,0,0,0,0,0,0,0,0,0,0,0,0,0,0,0,0,0,0,0,0,0,0,0,0,0,0,0,0,0,0,0,0,0,0,0,0,0,0,0,0,0,0,0,0,0,0,0,0,0,0,0,0.3137,0.3136,0,0.3032,0.3031,0.303,0.2963,0.2963,0.2962,0.2962,0.2852,0.2849,0.2847,0,0,0,0,0,0,0,0,0,0,0,0,0,0.3279,0.3277,0.3137,0.3136,0.3135,0.3032,0.3031,0.3029,0.2963,0.2963,0.2962,0.2962,0.2853,0.285,0.2847,0,0,0,0,0,0,0,0,0,0,0,0,0,0.32,0.3276,0.3138,0.3089,0.3084,0.3032,0.3031,0.3029,0.2963,0.2963,0.2962,0.2962,0.2854,0.285,0.2846,0.2834,0,0,0.2834,0.2833,0,0,0,0,0,0,0,0,0.3205,0.3195,0.3098,0.3093,0.3087,0.301,0.304,0.2963,0.2963,0.3009,0.2962,0.2961,0.2905,0.2897,0.2878,0.2829,0.2824,0.2834,0.2832,0.283,0.2829,0,0,0,0,0,0,0,0.321,0.3199,0.3096,0.3096,0.309,0.3072,0.3061,0.3025,0.2961,0.3005,0.3,0.2988,0.2902,0.2882,0.2875,0.2822,0.2834,0.2831,0.2828,0.2827,0.2756,0.2756,0,0,0,0,0,0,0.3224,0.3204,0.3099,0.3092,0.3146,0.307,0.3057,0.3035,0.2962,0.295,0.2989,0.2986,0.2889,0.288,0.2871,0.2851,0.283,0.2826,0.2824,0.2756,0.2756,0.2757,0,0,0,0,0,0,0.3227,0.3215,0.3103,0.3147,0.3131,0.3068,0.3044,0.3033,0.3014,0.295,0.2938,0.2981,0.2888,0.2876,0.2843,0.2846,0.2825,0.2821,0.2755,0.2756,0.2756,0.2811,0,0,0,0,0,0,0.3231,0.3217,0.3212,0.3147,0.3129,0.3078,0.3045,0.3032,0.3007,0.3002,0.2939,0.2928,0.2887,0.285,0.284,0.284,0.2818,0.2754,0.2755,0.2756,0.2808,0.2813,0.2817,0,0,0,0,0,0.3237,0.3231,0.3212,0.3199,0.3122,0.3078,0.3068,0.3022,0.3008,0.3002,0.2961,0.293,0.2848,0.2847,0.2835,0.2834,0.2754,0.2755,0.2756,0.2806,0.2812,0.2817,0,0,0,0,0,0,0.3296,0.3221,0.3199,0.3173,0.3133,0.3067,0.3058,0.303,0.2992,0.2988,0.2932,0.2918,0.2891,0.2859,0.286,0.2818,0.2797,0.2796,0.2839,0.2844,0.2849,0.2856,0.2815,0,0,0,0,0,0.3307,0.3278,0.3214,0.3197,0.3178,0.3122,0.3101,0.3069,0.3025,0.3007,0.2964,0.2921,0.2886,0.2863,0.2827,0.2804,0.2788,0.2798,0.2802,0.2806,0.2805,0.2789,0.2792,0.276,0.276,0.276,0,0,0.3327,0.3283,0.3268,0.3208,0.3173,0.3144,0.3108,0.3079,0.3057,0.3003,0.2969,0.2935,0.2884,0.2856,0.2841,0.2829,0.2811,0.2807,0.2811,0.2808,0.2791,0.2794,0.2797,0.276,0.276,0.276,0,0,0.3349,0.3314,0.3295,0.326,0.3208,0.3171,0.3167,0.3106,0.3082,0.3047,0.3006,0.2978,0.2919,0.2884,0.2858,0.2868,0.2837,0.2857,0.288,0.2865,0.2868,0.287,0.2872,0.2874,0.2857,0.2857,0.2857,0,0.3381,0.3336,0.3288,0.3262,0.3236,0.3187,0.3167,0.3136,0.3074,0.3057,0.3045,0.2969,0.2931,0.2893,0.2896,0.2877,0.2869,0.2864,0.2872,0.2873,0.2874,0.2876,0.2877,0.286,0.286,0.2859,0.2859,0,0.3378,0.3347,0.3338,0.3281,0.3254,0.3231,0.3179,0.3158,0.3128,0.3092,0.3057,0.301,0.2963,0.2952,0.2923,0.291,0.2904,0.2883,0.286,0.2881,0.2881,0.2882,0.2864,0.2863,0.2862,0.2861,0,0,0.3434,0.335,0.3348,0.3321,0.326,0.3235,0.3209,0.3164,0.3147,0.3106,0.3083,0.3033,0.3013,0.2984,0.295,0.2938,0.2947,0.2917,0.2915,0.2924,0.2929,0.2945,0.2947,0.2927,0.2927,0.2927,0.2933,0,0.3446,0.3398,0.3354,0.3322,0.3293,0.3246,0.3223,0.3183,0.3149,0.3119,0.3081,0.3047,0.3023,0.3005,0.2991,0.2949,0.2947,0.2948,0.2903,0.2903,0.2917,0.2947,0.2964,0.2972,0.2933,0.2933,0.2933,0,0.3454,0.3416,0.3381,0.3322,0.3309,0.3289,0.3244,0.3216,0.317,0.3146,0.3114,0.3078,0.3048,0.303,0.2988,0.2989,0.2968,0.2945,0.2944,0.2938,0.2918,0.294,0.2973,0.2974,0.2933,0.2933,0.2933,0,0.3497,0.3437,0.3408,0.3387,0.3318,0.3306,0.3276,0.3229,0.3205,0.3165,0.3149,0.3106,0.3083,0.305,0.3004,0.2995,0.2966,0.2944,0.2944,0.2945,0.2939,0.2939,0.2968,0.2927,0.2927,0.2927,0.2927,0,0.3515,0.3495,0.3427,0.3409,0.3385,0.3335,0.3312,0.3279,0.3237,0.3212,0.3168,0.3145,0.3086,0.3055,0.3019,0.2988,0.2978,0.2957,0.2948,0.2961,0.2963,0.2945,0.2943,0.2928,0.2928,0.2927,0.2927,0,0.3558,0.3512,0.3477,0.3415,0.3399,0.3385,0.3331,0.3312,0.3276,0.3243,0.3233,0.3176,0.3137,0.3089,0.3034,0.301,0.2983,0.2969,0.2999,0.2993,0.2996,0.2996,0.3013,0.3012,0.2974,0.2974,0.2974,0,0.3572,0.3556,0.3492,0.3472,0.3445,0.3413,0.3388,0.3338,0.3314,0.3259,0.3246,0.3205,0.3169,0.3109,0.3062,0.3021,0.3004,0.3013,0.2998,0.3011,0.3003,0.3005,0.3002,0.3017,0.3018,0.3018,0.3019,0,0.3601,0.3579,0.3545,0.3503,0.3475,0.3439,0.3402,0.3388,0.3329,0.3304,0.3265,0.3237,0.3182,0.3141,0.3094,0.3062,0.303,0.3024,0.3022,0.3034,0.3052,0.3041,0.3009,0.3024,0.3023,0.3023,0.3023,0.3022,0.3629,0.3613,0.3565,0.3529,0.3495,0.3461,0.344,0.3401,0.3368,0.332,0.3292,0.3254,0.3207,0.3139,0.311,0.3078,0.3066,0.3063,0.3062,0.3062,0.3065,0.3058,0.3069,0.3069,0.3069,0.3069,0.3068,0,0.3655,0.3623,0.359,0.3539,0.351,0.3484,0.3441,0.3418,0.3385,0.3345,0.331,0.3265,0.3225,0.3175,0.3132,0.3116,0.31,0.3106,0.3106,0.3099,0.3079,0.3085,0.312,0.312,0.312,0.312,0.312,0.312,0.3665,0.3635,0.3608,0.3561,0.3528,0.349,0.3468,0.3436,0.3403,0.3355,0.3322,0.329,0.3245,0.3198,0.316,0.3146,0.3132,0.3142,0.3124,0.3105,0.3101,0.3097,0.3102,0.3139,0.3139,0.3146,0.3147,0.3147]}]]